[[{"header":{"parameterUnit":"m.s-1","parameterCategory":1,"la1":30.2991,"la2":30.254,"lo1":-89.0895,"lo2":-89.0444,"dy":0.0017,"dx":0.0017,"nx":28,"ny":28,"refTime":"2023-10-29T03:00:00:Z","depth":0,"parameterNumber":2,"parameterNumberName":"U-component_of_WINDS"},"data":[0,0,0,0,0,0,0,0,0,0,0,0,0,0,0,0,0,0,0,0,0,0,0,0,0,0,0,0,0,0,0,0,0,0,0,0,0,0,0,0,0,0,0,0,0,0,0,0,0,0,0,0,0,0,0,0,0,0,-2.8767,-2.8768,0,-2.8813,-2.8814,-2.8814,-2.8787,-2.8786,-2.8784,-2.8783,-2.8827,-2.883,-2.8832,0,0,0,0,0,0,0,0,0,0,0,0,0,-2.8656,-2.8658,-2.8767,-2.8768,-2.8769,-2.8813,-2.8814,-2.8814,-2.8787,-2.8786,-2.8784,-2.8782,-2.8826,-2.8829,-2.8832,0,0,0,0,0,0,0,0,0,0,0,0,0,-2.8703,-2.8659,-2.8767,-2.876,-2.876,-2.8813,-2.8814,-2.8815,-2.8787,-2.8785,-2.8784,-2.8782,-2.8826,-2.8829,-2.8833,-2.8894,0,0,-2.8844,-2.8845,0,0,0,0,0,0,0,0,-2.8701,-2.8707,-2.8761,-2.8761,-2.8761,-2.8792,-2.8791,-2.8841,-2.8788,-2.8777,-2.8783,-2.8781,-2.8817,-2.8821,-2.8834,-2.8896,-2.8898,-2.8844,-2.8846,-2.8848,-2.8849,0,0,0,0,0,0,0,-2.8697,-2.8705,-2.8785,-2.8762,-2.8762,-2.8755,-2.8759,-2.88,-2.8807,-2.8778,-2.8776,-2.8782,-2.8817,-2.8831,-2.8835,-2.8899,-2.8844,-2.8847,-2.8849,-2.8851,-2.9015,-2.9017,0,0,0,0,0,0,-2.8695,-2.8703,-2.8784,-2.8787,-2.8725,-2.8759,-2.8764,-2.8784,-2.8807,-2.8809,-2.8784,-2.878,-2.8825,-2.8831,-2.8836,-2.891,-2.8848,-2.8851,-2.8853,-2.9013,-2.9015,-2.9018,0,0,0,0,0,0,-2.8693,-2.8702,-2.8782,-2.8744,-2.8754,-2.8763,-2.8786,-2.8786,-2.88,-2.8811,-2.8812,-2.8796,-2.8824,-2.8831,-2.888,-2.8911,-2.8853,-2.8856,-2.901,-2.9014,-2.9017,-2.9057,0,0,0,0,0,0,-2.8689,-2.8702,-2.8725,-2.8745,-2.8756,-2.8825,-2.8788,-2.8788,-2.8807,-2.8803,-2.8824,-2.8825,-2.8823,-2.8875,-2.8884,-2.8915,-2.8859,-2.9007,-2.9012,-2.9016,-2.9053,-2.9061,-2.9069,0,0,0,0,0,-2.8686,-2.8733,-2.8726,-2.8736,-2.8785,-2.8827,-2.8833,-2.8831,-2.8809,-2.8832,-2.884,-2.8824,-2.8907,-2.888,-2.889,-2.8922,-2.9005,-2.901,-2.9015,-2.905,-2.906,-2.9068,0,0,0,0,0,0,-2.8714,-2.8736,-2.8728,-2.8784,-2.8804,-2.8823,-2.8851,-2.8842,-2.8868,-2.8863,-2.8859,-2.8863,-2.8915,-2.8924,-2.8894,-2.8984,-2.8953,-2.896,-2.8975,-2.8985,-2.8993,-2.8988,-2.8862,0,0,0,0,0,-2.8728,-2.8761,-2.8777,-2.8825,-2.8836,-2.8843,-2.8861,-2.8858,-2.8878,-2.8886,-2.8897,-2.8917,-2.8948,-2.8967,-2.8996,-2.9056,-2.906,-2.9083,-2.9091,-2.9097,-2.9102,-2.9135,-2.9146,-2.9034,-2.9034,-2.9034,0,0,-2.8755,-2.8771,-2.8791,-2.8832,-2.8847,-2.8881,-2.885,-2.8886,-2.8911,-2.8891,-2.8938,-2.8948,-2.897,-2.9025,-2.9049,-2.9034,-2.9135,-2.9104,-2.9108,-2.911,-2.9142,-2.9152,-2.9162,-2.9038,-2.9037,-2.9036,0,0,-2.8821,-2.8836,-2.8878,-2.8895,-2.892,-2.8924,-2.8935,-2.8956,-2.8961,-2.9009,-2.8995,-2.9025,-2.9078,-2.9094,-2.911,-2.9187,-2.9173,-2.9196,-2.9236,-2.9268,-2.9277,-2.9285,-2.9311,-2.9321,-2.9202,-2.9202,-2.9203,0,-2.885,-2.8901,-2.8901,-2.8939,-2.8957,-2.8944,-2.8986,-2.9002,-2.9035,-2.9048,-2.9031,-2.9098,-2.9112,-2.9171,-2.919,-2.9203,-2.9214,-2.9192,-2.9276,-2.9284,-2.9291,-2.9316,-2.9326,-2.9205,-2.9205,-2.9204,-2.9204,0,-2.8936,-2.8972,-2.9003,-2.9036,-2.9059,-2.9099,-2.9105,-2.9128,-2.9124,-2.9131,-2.918,-2.9197,-2.923,-2.9244,-2.924,-2.9303,-2.9293,-2.9276,-2.9244,-2.9304,-2.9328,-2.9338,-2.9209,-2.9208,-2.9207,-2.9206,0,0,-2.9017,-2.9053,-2.9064,-2.908,-2.9108,-2.9135,-2.9176,-2.9209,-2.9229,-2.9253,-2.9286,-2.9333,-2.9319,-2.9336,-2.9335,-2.9363,-2.9423,-2.9343,-2.9344,-2.9356,-2.9494,-2.9505,-2.9516,-2.9416,-2.9418,-2.9419,-2.9492,0,-2.9084,-2.9155,-2.9158,-2.9223,-2.9256,-2.9246,-2.9281,-2.9302,-2.9311,-2.934,-2.9349,-2.9382,-2.9361,-2.9372,-2.94,-2.941,-2.945,-2.9405,-2.9446,-2.9447,-2.9438,-2.9528,-2.954,-2.9607,-2.9501,-2.9503,-2.9504,0,-2.917,-2.9199,-2.9268,-2.9293,-2.9307,-2.9339,-2.937,-2.9399,-2.9424,-2.9428,-2.945,-2.9445,-2.9487,-2.9456,-2.9514,-2.9483,-2.9501,-2.9508,-2.9511,-2.9512,-2.9477,-2.9531,-2.9628,-2.9638,-2.9518,-2.9517,-2.9516,0,-2.9222,-2.9277,-2.9326,-2.934,-2.9371,-2.9393,-2.9407,-2.943,-2.9451,-2.9479,-2.9492,-2.9525,-2.9542,-2.9567,-2.9572,-2.9549,-2.963,-2.9599,-2.9634,-2.9633,-2.9648,-2.9647,-2.9748,-2.9663,-2.9663,-2.9663,-2.9663,0,-2.9294,-2.9336,-2.935,-2.9379,-2.9427,-2.943,-2.9477,-2.9489,-2.951,-2.9542,-2.9536,-2.9566,-2.957,-2.9602,-2.9606,-2.9653,-2.9661,-2.9665,-2.9665,-2.9665,-2.9664,-2.9674,-2.9669,-2.9666,-2.9665,-2.9665,-2.9664,0,-2.9358,-2.9368,-2.9421,-2.9447,-2.9455,-2.9488,-2.9511,-2.9539,-2.9549,-2.9589,-2.9599,-2.9613,-2.965,-2.9658,-2.9701,-2.9704,-2.976,-2.9756,-2.9752,-2.9751,-2.9784,-2.978,-2.9894,-2.9908,-2.9816,-2.9817,-2.9818,0,-2.9402,-2.9435,-2.9466,-2.9487,-2.9503,-2.9537,-2.9559,-2.9565,-2.9588,-2.962,-2.9645,-2.9682,-2.9711,-2.9771,-2.9785,-2.9818,-2.9814,-2.9852,-2.9819,-2.9818,-2.9813,-2.9811,-2.9814,-2.9857,-2.9858,-2.9859,-2.986,0,-2.948,-2.9485,-2.9516,-2.9551,-2.9578,-2.9605,-2.9631,-2.9649,-2.9659,-2.9685,-2.9724,-2.9747,-2.9793,-2.9829,-2.9864,-2.9878,-2.987,-2.9871,-2.988,-2.9878,-2.9874,-2.9876,-2.9767,-2.9867,-2.9866,-2.9866,-2.9865,-2.9865,-2.9534,-2.9563,-2.959,-2.9627,-2.9648,-2.9673,-2.9701,-2.9716,-2.9748,-2.9786,-2.9789,-2.983,-2.9856,-2.9902,-2.9919,-2.9952,-2.994,-2.9954,-2.9957,-2.996,-2.9963,-2.9871,-2.9958,-2.9958,-2.9958,-2.9958,-2.9958,0,-2.9611,-2.9629,-2.9662,-2.97,-2.9729,-2.9723,-2.9752,-2.9776,-2.9813,-2.9839,-2.9869,-2.9914,-2.995,-2.9969,-3.0005,-3.0028,-3.0025,-3.0037,-3.0034,-3.0037,-2.9972,-2.9959,-3.0038,-3.0038,-3.0038,-3.0038,-3.0038,-3.0038,-2.9654,-2.9703,-2.9711,-2.9771,-2.9788,-2.983,-2.9847,-2.9871,-2.9891,-2.9942,-2.9973,-2.9985,-3.0008,-3.0047,-3.008,-3.0084,-3.0097,-3.011,-3.0113,-3.005,-3.0042,-3.0034,-3.0022,-3.0113,-3.0113,-3.0176,-3.0176,-3.0177]},{"header":{"parameterUnit":"m.s-1","parameterCategory":1,"la1":30.2991,"la2":30.254,"lo1":-89.0895,"lo2":-89.0444,"dy":0.0017,"dx":0.0017,"nx":28,"ny":28,"refTime":"2023-10-29T03:00:00:Z","depth":0,"parameterNumber":3,"parameterNumberName":"V-component_of_WINDS"},"data":[0,0,0,0,0,0,0,0,0,0,0,0,0,0,0,0,0,0,0,0,0,0,0,0,0,0,0,0,0,0,0,0,0,0,0,0,0,0,0,0,0,0,0,0,0,0,0,0,0,0,0,0,0,0,0,0,0,0,2.8401,2.8402,0,2.8432,2.8432,2.8432,2.839,2.8389,2.8387,2.8386,2.8413,2.8415,2.8418,0,0,0,0,0,0,0,0,0,0,0,0,0,2.8307,2.8309,2.8401,2.8402,2.8402,2.8432,2.8432,2.8432,2.839,2.8389,2.8387,2.8385,2.8413,2.8415,2.8418,0,0,0,0,0,0,0,0,0,0,0,0,0,2.8344,2.831,2.8401,2.8385,2.8384,2.8432,2.8432,2.8433,2.8391,2.8389,2.8386,2.8384,2.8412,2.8415,2.8418,2.8482,0,0,2.8428,2.8429,0,0,0,0,0,0,0,0,2.8342,2.8347,2.8387,2.8386,2.8385,2.8405,2.8409,2.8449,2.8391,2.8388,2.8386,2.8383,2.8412,2.8415,2.8426,2.8484,2.8485,2.8428,2.843,2.8431,2.8432,0,0,0,0,0,0,0,2.8339,2.8346,2.8413,2.8387,2.8386,2.8376,2.8379,2.8416,2.8412,2.8388,2.8385,2.839,2.8411,2.8423,2.8426,2.8485,2.8428,2.8431,2.8433,2.8434,2.8601,2.8603,0,0,0,0,0,0,2.8339,2.8344,2.8412,2.8414,2.8357,2.8379,2.8382,2.8401,2.8412,2.8411,2.8391,2.8387,2.8418,2.8422,2.8427,2.8504,2.8431,2.8434,2.8436,2.8598,2.8601,2.8604,0,0,0,0,0,0,2.8337,2.8345,2.8411,2.8378,2.8386,2.8383,2.8404,2.8402,2.8414,2.8414,2.8413,2.8404,2.8417,2.8422,2.847,2.8504,2.8436,2.8439,2.8595,2.8599,2.8603,2.8658,0,0,0,0,0,0,2.8334,2.8345,2.8369,2.8379,2.8388,2.8454,2.8406,2.8405,2.842,2.8415,2.8426,2.8425,2.8415,2.8465,2.8473,2.8507,2.8441,2.8592,2.8597,2.8602,2.8653,2.8664,2.8672,0,0,0,0,0,2.8331,2.8382,2.837,2.8379,2.8418,2.8456,2.846,2.8449,2.8423,2.8447,2.8448,2.8425,2.85,2.8471,2.8479,2.8515,2.859,2.8596,2.8601,2.8649,2.8662,2.8672,0,0,0,0,0,0,2.8373,2.8383,2.837,2.8425,2.8441,2.8448,2.8478,2.8462,2.8484,2.8478,2.8463,2.8465,2.8517,2.8521,2.8488,2.8579,2.8541,2.8548,2.8574,2.8586,2.8595,2.8592,2.8444,0,0,0,0,0,2.8389,2.842,2.8426,2.8475,2.8483,2.848,2.8496,2.8487,2.8501,2.8506,2.851,2.8525,2.8552,2.8569,2.8594,2.8655,2.8657,2.8684,2.8694,2.8702,2.8707,2.8742,2.8754,2.8623,2.8623,2.8623,0,0,2.8421,2.8431,2.845,2.8484,2.8494,2.8526,2.8485,2.852,2.8544,2.8511,2.8557,2.8561,2.8576,2.8631,2.8655,2.8636,2.8745,2.8709,2.8715,2.8717,2.8749,2.8762,2.8773,2.8627,2.8626,2.8625,0,0,2.8497,2.8507,2.855,2.8563,2.858,2.8579,2.8589,2.8601,2.8603,2.8649,2.8627,2.8655,2.8701,2.8713,2.8726,2.8813,2.8792,2.8821,2.8869,2.8903,2.8914,2.8923,2.8954,2.8965,2.8828,2.8828,2.8828,0,2.8534,2.8582,2.8573,2.8611,2.8627,2.8603,2.8646,2.8658,2.8683,2.8694,2.8673,2.8733,2.8741,2.88,2.8822,2.8833,2.8844,2.8818,2.8913,2.8922,2.8931,2.896,2.8972,2.8831,2.8831,2.883,2.883,0,2.8629,2.8663,2.8695,2.8722,2.8742,2.8782,2.8779,2.8801,2.8792,2.8793,2.8841,2.8851,2.8879,2.8893,2.8882,2.8951,2.8939,2.8916,2.8876,2.8947,2.8974,2.8985,2.8836,2.8835,2.8834,2.8833,0,0,2.8726,2.8752,2.8764,2.8777,2.8797,2.8823,2.8864,2.8893,2.8912,2.8931,2.8965,2.9007,2.8988,2.9002,2.8994,2.9024,2.9093,2.8997,2.8997,2.9014,2.917,2.9186,2.92,2.9081,2.9083,2.9085,2.9169,0,2.8802,2.8873,2.8868,2.8935,2.8968,2.8948,2.8984,2.9,2.9004,2.9031,2.9035,2.9065,2.9037,2.9046,2.9075,2.9078,2.9124,2.9073,2.9112,2.9113,2.9107,2.9214,2.923,2.9309,2.918,2.9181,2.9183,0,2.8898,2.8924,2.8995,2.9014,2.9027,2.9059,2.9088,2.9115,2.9134,2.9135,2.9154,2.9142,2.9183,2.9146,2.9203,2.9168,2.9185,2.919,2.9192,2.9194,2.9151,2.9217,2.9333,2.9345,2.92,2.9198,2.9197,0,2.8962,2.9015,2.9065,2.9077,2.91,2.9124,2.9134,2.9152,2.9171,2.9196,2.9208,2.9237,2.9253,2.9276,2.9272,2.9245,2.9331,2.9292,2.9332,2.9333,2.9349,2.9348,2.9468,2.9362,2.9362,2.9362,2.9362,0,2.9046,2.909,2.9095,2.9125,2.9175,2.917,2.922,2.9228,2.9244,2.9276,2.9261,2.9291,2.9286,2.9316,2.9314,2.9363,2.937,2.9371,2.9369,2.9372,2.9371,2.938,2.9374,2.9365,2.9364,2.9364,2.9363,0,2.9125,2.9129,2.9183,2.9203,2.9209,2.9245,2.9261,2.9291,2.9295,2.9336,2.9345,2.9351,2.9387,2.9387,2.9426,2.9425,2.9485,2.9477,2.9478,2.9477,2.9516,2.9513,2.9646,2.9663,2.9547,2.9548,2.9549,0,2.9177,2.9211,2.9236,2.9258,2.9271,2.9305,2.9326,2.9325,2.9347,2.9374,2.94,2.9435,2.9462,2.952,2.9528,2.9559,2.9552,2.9596,2.9556,2.9558,2.9552,2.9549,2.9553,2.9603,2.9605,2.9606,2.9607,0,2.9269,2.9271,2.9302,2.9336,2.9362,2.9388,2.9411,2.943,2.9431,2.9457,2.9494,2.9516,2.9559,2.9594,2.9625,2.9635,2.9621,2.962,2.9631,2.9632,2.9631,2.9632,2.9499,2.9616,2.9615,2.9614,2.9614,2.9614,2.9336,2.9366,2.939,2.9427,2.9446,2.9469,2.9499,2.9509,2.9541,2.9577,2.9574,2.9616,2.9638,2.9679,2.9692,2.9725,2.9709,2.9725,2.9728,2.9732,2.9736,2.9628,2.9731,2.973,2.973,2.973,2.973,0,2.9427,2.9443,2.9477,2.9513,2.9542,2.953,2.9557,2.9582,2.962,2.9642,2.9671,2.9716,2.9751,2.9763,2.9797,2.9821,2.9816,2.983,2.9827,2.983,2.9749,2.9736,2.9834,2.9834,2.9834,2.9834,2.9834,2.9834,2.9478,2.953,2.9536,2.9598,2.9613,2.9656,2.9673,2.9695,2.9713,2.9764,2.9795,2.9804,2.9823,2.9859,2.9891,2.9893,2.9906,2.9923,2.9923,2.9846,2.9835,2.9825,2.9813,2.9926,2.9926,3.0002,3.0002,3.0003]}]]